Weather History for LFMN - June, 2013

Change the Weather History Date:

Wednesday, June 19, 2013

  Actual Average Record
Temperature  
Mean Temperature 76 °F -  
Max Temperature 80 °F 78 °F 87 °F (2002)
Min Temperature 73 °F 65 °F 60 °F (1998)
Cooling Degree Days 12    
Growing Degree Days 26 (Base 50)    
Moisture  
Dew Point 63 °F    
Average Humidity 62    
Maximum Humidity 78    
Minimum Humidity 41    
Precipitation  
Precipitation 0.00 in 0.03 in - ()
Sea Level Pressure  
Sea Level Pressure 29.96 in    
Wind  
Wind Speed 12 mph ()    
Max Wind Speed 22 mph    
Max Gust Speed -    
Visibility 7.0 miles    
Events      
Averages and records for this station are not official NWS values.
T = Trace of Precipitation, MM = Missing Value Source: Averaged Metar Reports

Daily Weather History Graph

Daily Weather History Graph

Search for Another Location

Airport or City:

Trip Planner

Search our weather history database for the weather conditions in past years. The results will help you decide how hot, cold, wet, or windy it might be!

Date:

Astronomy

Jun. 19, 2013 Rise Set
Actual Time 5:49 AM CEST 9:15 PM CEST
Civil Twilight 5:13 AM CEST 9:51 PM CEST
Nautical Twilight 4:26 AM CEST 10:39 PM CEST
Astronomical Twilight 3:26 AM CEST 11:38 PM CEST
Moon 4:44 PM CEST (6/19) 2:30 AM CEST (6/19)
Length of Visible Light 16h 38m
Length of Day
15h 26m
Waxing Gibbous, 78% of the Moon is Illuminated
Jun 19
Waxing Gibbous
Jun 23
Full
Jun 30
Last Quarter
Jul 8
New
Jul 16
First Quarter

Hourly Weather History & Observations

Time (CEST) Temp. Heat Index Dew Point Humidity Pressure Visibility Wind Dir Wind Speed Gust Speed Precip Events Conditions
12:00 AM 77.0 °F - 62.6 °F 61% 29.92 in - ENE 19.6 mph - N/A   Clear
12:30 AM 78.8 °F - 60.8 °F 54% 29.92 in - NNE 8.1 mph - N/A   Clear
1:00 AM 77.0 °F - 60.8 °F 57% 29.92 in - ENE 5.8 mph - N/A   Clear
1:30 AM 77.0 °F - 62.6 °F 61% 29.92 in - ENE 13.8 mph - N/A   Clear
2:00 AM 76 °F - 63 °F 56% 29.94 in 31 mi ENE 17.3 mph - -   Clear
2:00 AM 77.0 °F - 62.6 °F 61% 29.92 in - ENE 17.3 mph - N/A   Clear
2:30 AM 77.0 °F - 62.6 °F 61% 29.92 in - ENE 20.7 mph - N/A   Clear
3:00 AM 75.2 °F - 64.4 °F 69% 29.92 in - ENE 20.7 mph - N/A   Clear
3:30 AM 75.2 °F - 64.4 °F 69% 29.92 in - ENE 19.6 mph - N/A   Clear
4:00 AM 75.2 °F - 64.4 °F 69% 29.92 in - ENE 15.0 mph - N/A   Clear
4:30 AM 75.2 °F - 62.6 °F 65% 29.92 in - ENE 19.6 mph - N/A   Clear
5:00 AM 75.2 °F - 62.6 °F 65% 29.92 in - ENE 16.1 mph - N/A   Clear
5:30 AM 73.4 °F - 62.6 °F 69% 29.92 in - ENE 21.9 mph - N/A   Clear
6:00 AM 75.2 °F - 62.6 °F 65% 29.92 in - ENE 15.0 mph - N/A   Clear
6:30 AM 75.2 °F - 62.6 °F 65% 29.95 in - ENE 11.5 mph - N/A   Clear
7:00 AM 73.4 °F - 64.4 °F 73% 29.95 in - ENE 13.8 mph - N/A   Clear
7:30 AM 75.2 °F - 62.6 °F 65% 29.95 in - ENE 9.2 mph - N/A   Clear
8:00 AM 75 °F - 63 °F 58% 29.96 in 31 mi East 18.4 mph - -   Clear
8:00 AM 75.2 °F - 64.4 °F 69% 29.95 in - East 17.3 mph - N/A   Clear
8:30 AM 77.0 °F - 62.6 °F 61% 29.95 in - East 20.7 mph - N/A   Clear
9:00 AM 77.0 °F - 62.6 °F 61% 29.95 in - ENE 20.7 mph - N/A   Clear
9:30 AM 77.0 °F - 64.4 °F 65% 29.95 in - ENE 13.8 mph - N/A   Clear
10:00 AM 77.0 °F - 64.4 °F 65% 29.98 in - ENE 8.1 mph - N/A   Clear
10:30 AM 77.0 °F - 62.6 °F 61% 29.98 in - East 19.6 mph - N/A   Clear
11:00 AM 77.0 °F - 62.6 °F 61% 29.98 in - East 20.7 mph - N/A   Clear
11:30 AM 78.8 °F - 62.6 °F 57% 29.98 in 6.2 mi ENE 19.6 mph - N/A   Scattered Clouds
12:00 PM 78.8 °F - 62.6 °F 57% 29.98 in 6.2 mi East 20.7 mph - N/A   Partly Cloudy
12:30 PM 78.8 °F - 62.6 °F 57% 29.98 in 6.2 mi East 16.1 mph - N/A   Scattered Clouds
1:00 PM 78.8 °F - 62.6 °F 57% 30.01 in 6.2 mi East 12.7 mph - N/A   Scattered Clouds
1:30 PM 80.6 °F 81.5 °F 60.8 °F 51% 30.01 in 6.2 mi East 10.4 mph - N/A   Scattered Clouds
2:00 PM 79 °F - 60 °F 41% 29.99 in 19 mi East 8.1 mph - -   Scattered Clouds
2:00 PM 80.6 °F 81.1 °F 59.0 °F 48% 29.98 in 6.2 mi East 9.2 mph - N/A   Scattered Clouds
2:30 PM 78.8 °F - 62.6 °F 57% 30.01 in 6.2 mi SSE 9.2 mph - N/A   Scattered Clouds
3:00 PM 78.8 °F - 60.8 °F 54% 30.01 in 6.2 mi South 5.8 mph - N/A   Partly Cloudy
3:30 PM 78.8 °F - 60.8 °F 54% 30.01 in 6.2 mi SE 4.6 mph - N/A   Partly Cloudy
4:00 PM 78.8 °F - 62.6 °F 57% 30.01 in 6.2 mi ESE 3.5 mph - N/A   Partly Cloudy
4:30 PM 78.8 °F - 64.4 °F 61% 30.01 in 6.2 mi SSE 4.6 mph - N/A   Partly Cloudy
5:00 PM 78.8 °F - 64.4 °F 61% 29.98 in 6.2 mi SSE 5.8 mph - N/A   Partly Cloudy
5:30 PM 78.8 °F - 62.6 °F 57% 29.98 in 6.2 mi South 4.6 mph - N/A   Partly Cloudy
6:00 PM 78.8 °F - 60.8 °F 54% 29.98 in 6.2 mi East 4.6 mph - N/A   Partly Cloudy
6:30 PM 77.0 °F - 68.0 °F 74% 29.98 in 6.2 mi SSE 5.8 mph - N/A   Partly Cloudy
7:00 PM 77.0 °F - 68.0 °F 74% 29.98 in - South 6.9 mph - N/A   Clear
7:30 PM 75.2 °F - 68.0 °F 78% 29.98 in - SSE 5.8 mph - N/A   Clear
8:00 PM 75 °F - 65 °F 64% 29.98 in 25 mi SW 4.6 mph - -   Scattered Clouds
8:00 PM 75.2 °F - 66.2 °F 73% 29.98 in - SSW 3.5 mph - N/A   Clear
8:30 PM 75.2 °F - 64.4 °F 69% 29.98 in - SSW 3.5 mph - N/A   Clear
9:00 PM 75.2 °F - 64.4 °F 69% 29.98 in - Variable 2.3 mph - N/A   Clear
9:30 PM 73.4 °F - 62.6 °F 69% 29.98 in - WSW 2.3 mph - N/A   Clear
10:00 PM 73.4 °F - 60.8 °F 65% 29.98 in - West 2.3 mph - N/A   Clear
10:30 PM 73.4 °F - 60.8 °F 65% 29.98 in - Variable 2.3 mph - N/A   Clear
11:00 PM 73.4 °F - 60.8 °F 65% 29.98 in - NNE 4.6 mph - N/A   Clear
11:30 PM 73.4 °F - 60.8 °F 65% 29.98 in 6.2 mi NW 6.9 mph - N/A   Partly Cloudy